SL-14 R/B

Last updated on Tue Jul 01 2025 00:02:14 GMT+0000 (Coordinated Universal Time)

1 21423U 91042B 25181.25455880 .00000290 00000+0 33889-4 0 9997 2 21423 82.4934 96.8747 0016992 356.0423 4.0653 14.81554238815693
UTC large
Height (km)
Speed (km/s)
/
Latitude / Longitude
Inclination (degrees)
Orbital Period (minutes)
Azimuth
Elevation
Range (km)
Doppler Factor

Next 0 passes for location: London (51.5072 / 0.1276)

Sorry there are no passes over London.